Skip Page Navigation
NASA JPL Caltech
NASA Logo - Jet Propulsion Laboratory + View the NASA Portal
+ Center for Near-Earth Object Studies
JPL Home Earth Solar System Stars & Galaxies Technology
JPL Solar System Dynamics
BODIES ORBITS EPHEMERIDES TOOLS PHYSICAL DATA DISCOVERY FAQ SITE MAP
JPL Small-Body Database Browser
Search: [ help ]  
58461 (1996 ML)
Classification: Main-belt Asteroid          SPK-ID: 2058461
Ephemeris | Orbit Diagram | Orbital Elements | Mission Design | Physical Parameters | Discovery Circumstances | Close-Approach Data ]

[ show orbit diagram ]
Orbital Elements at Epoch 2459000.5 (2020-May-31.0) TDB
Reference: JPL 20 (heliocentric ecliptic J2000)
 Element Value Uncertainty (1-sigma)   Units 
e .0836125705510006 3.5863e-08  
a 2.771449044775538 1.2852e-08 au
q 2.53972106599074 9.8328e-08 au
i 1.300232330887294 3.4428e-06 deg
node 33.04816887747523 0.00017001 deg
peri 126.8152830349285 0.00017132 deg
M 150.8345457767516 2.2543e-05 deg
tp 2458294.414824963300
(2018-Jun-24.91482496)
0.00010394 TDB
period 1685.228418358726
4.61
1.1722e-05
3.209e-08
d
yr
n .2136208932143516 1.486e-09 deg/d
Q 3.003177023560335 1.3927e-08 au
  Orbit Determination Parameters
   # obs. used (total)      922  
   data-arc span      10779 days (29.51 yr)  
   first obs. used      1991-04-14  
   last obs. used      2020-10-17  
   planetary ephem.      DE431  
   SB-pert. ephem.      SB431-N16  
   condition code      0  
   norm. resid. RMS      .53214  
   source      ORB  
   producer      Otto Matic  
   solution date      2020-Oct-26 09:05:16  

Additional Information
 Earth MOID = 1.54851 au 
 Jupiter MOID = 1.97197 au 
 T_jup = 3.332 
[ show covariance matrix ]

Ephemeris | Orbit Diagram | Orbital Elements | Mission Design | Physical Parameters | Discovery Circumstances | Close-Approach Data ]

Physical Parameter Table
Parameter Symbol Value Units Sigma Reference Notes
absolute magnitude H 15.2   n/a MPO436190  

58461 (1996 ML)          Discovered 1996-Jun-22 by Comba, P. G. at Prescott
Reference: 20030614/Numbers.arcLast Updated: 2004-04-19

[ show close-approach data ]
Alternate Designations
 1996 ML = 2000 EV150 = 2000 GU8 
Ephemeris | Orbit Diagram | Orbital Elements | Mission Design | Physical Parameters | Discovery Circumstances | Close-Approach Data ]
ABOUT SSD CREDITS/AWARDS PRIVACY/COPYRIGHT GLOSSARY LINKS
FirstGov 2021-Jan-22 17:30 UT
(server date/time)  
NASA Home Page
Site Manager:   Ryan S. Park
Webmaster  Alan B. Chamberlin